Regional Weather Roundup
Issued by NWS Charleston, SC

Current Version | Previous Version | Graphics & Text | Print | Product List | Glossary On
Versions: 1 2 3 4 5 6 7 8 9 10 11 12 13 14 15 16 17 18 19 20 21 22 23 24 25 26 27 28 29 30 31 32 33 34 35 36 37 38 39 40 41 42 43 44 45 46 47 48 49 50
000
ASUS42 KCHS 201512
RWRCHS

REGIONAL WEATHER ROUNDUP
NATIONAL WEATHER SERVICE CHARLESTON SC
1100 AM EDT THU JUL 20 2017

NOTE: "FAIR" INDICATES FEW OR NO CLOUDS BELOW 12,000 FEET WITH NO
SIGNIFICANT WEATHER AND/OR OBSTRUCTIONS TO VISIBILITY.

NOT ALL STATIONS ARE QUALITY CONTROLLED. USE DATA WITH CAUTION...
ESPECIALLY DEWPOINT OBSERVATIONS.

SCZ027-030-031-034>040-042>050-201600-
...SOUTHEAST SOUTH CAROLINA...

CITY           SKY/WX    TMP DP  RH WIND       PRES   REMARKS
N CHARLESTON   MOSUNNY   86  74  67 VRB5      30.09S HX  94
WATERFRONT PRK   N/A     84  77  79 CALM      30.08S HX  94
JOHNS ISLAND     N/A     88  77  70 W3        30.10R HX 100
PINOPOLIS        N/A     82  75  78 CALM      30.03R
MONCKS CORNER  FAIR      84  73  70 CALM      30.10R HX  91
SUMMERVILLE    FAIR      84  75  74 CALM      30.10S HX  92
BEAUFORT MCAS  MOSUNNY   87  76  69 CALM      30.10R HX  97
BEAUFORT ARPT  FAIR      86  73  66 W3        30.09S HX  93
HILTON HEAD IS MOSUNNY   86  75  70 CALM      30.10S HX  95
WALTERBORO     SUNNY     86  73  66 W5        30.11R HX  93
ALLENDALE        N/A    N/A N/A N/A MISG        N/A

...SOUTHERN MIDLANDS AND PEE DEE...

CITY           SKY/WX    TMP DP  RH WIND       PRES   REMARKS
GEORGETOWN     FAIR      82  77  83 W6        30.10S HX  91
KINGSTREE      FAIR      82  73  74 CALM      30.09R
ORANGEBURG     SUNNY     86  74  67 VRB5      30.09R HX  94
BARNWELL       FAIR      90  77  66 W5        30.10R HX 102
AIKEN          FAIR      86  73  66 CALM      30.13S HX  93
MANNING        FAIR      84  66  54 MISG      30.10R
COLUMBIA       SUNNY     89  73  59 VRB5      30.08S HX  97
SUMTER         SUNNY     85  74  68 N3        30.07R HX  93
FLORENCE       SUNNY     85  75  72 NW6       30.09R HX  93
MYRTLE BEACH   SUNNY     84  73  70 W5        30.10R HX  91
N MYRTLE BEACH SUNNY     83  74  74 S6        30.09R

$$

GAZ063-065-086>088-099>101-113>116-118-119-134>141-150-201600-
...SOUTHEAST GEORGIA...

CITY           SKY/WX    TMP DP  RH WIND       PRES   REMARKS
SAVANNAH ARPT  MOSUNNY   87  76  69 W3        30.10S HX  97
HUNTER AAF     SUNNY     88  75  64 W3        30.08R HX  98
FORT STEWART   SUNNY     87  74  66 CALM      30.09R HX  95
STATESBORO     SUNNY     89  76  66 CALM      30.10R HX  99
SYLVANIA       SUNNY     87  78  74 CALM      30.11R HX 100
CLAXTON        FAIR      88  78  71 CALM      30.10R HX 100

...CSRA...CENTRAL AND FAR SOUTHEAST GEORGIA...

CITY           SKY/WX    TMP DP  RH WIND       PRES   REMARKS
THOMSON        SUNNY     88  73  60 N5        30.15S HX  96
AUGUSTA-BUSH   SUNNY     89  77  67 SE5       30.09R HX 101
AUGUSTA-DANIEL SUNNY     91  70  49 N6        30.10S HX  96
SWAINSBORO     FAIR      88  75  66 NW6       30.12R HX  97
VIDALIA        SUNNY     88  77  70 CALM      30.11R HX 100
EASTMAN        FAIR      89  65  44 NW5       30.13R HX  91
HAZLEHURST     FAIR      89  80  74 NW5       30.10R HX 105
ALMA           SUNNY     90  76  63 VRB3      30.10R HX 101
WAYCROSS       SUNNY     91  80  70 W3        30.10S HX 108
JESUP          FAIR      90  72  55 CALM      30.11R HX  96
BAXLEY         FAIR      88  82  84 NW3       30.11R HX 108
BRUNSWICK      SUNNY     88  75  66 CALM      30.11S HX  97
SAINT SIMONS   SUNNY     87  77  72 S7        30.10R HX  99

$$

SCZ027-028-034-036>038-045-046-048>050-GAZ119-141-201600-
...LAKE AND SUPPLEMENTAL COASTAL OBSERVATIONS...

STATION/POSITION TIME  TEMP    WIND        PRES    WAVE   SWELL
                       AIR SEA DIR/SP/G            HT/PER HT/PER/DIR
                 (UTC) (F)     (DEG/KT/KT) (MB)    (FT/S) (FT/S/D)
WINYAH BAY       NOT AVBL
LAKE MURRAY      1420   83     250/  2/  3 1017.6S
ACE BASIN NERRS  NOT AVBL
FORT PULASKI     1448   84 85  330/  2/  3 1019.6R
SAPELO ISLAND    1400   85        CALM     1019.0

$$

ANZ835-935-AMZ111-154-330-350-352-354-370-450-454-472-201600-
...C-MAN AND BUOY OBSERVATIONS...

STATION/POSITION TIME  TEMP    WIND        PRES    WAVE   SWELL
                       AIR SEA DIR/SP/G            HT/PER HT/PER/DIR
                 (UTC) (F)     (DEG/KT/KT) (MB)    (FT/S) (FT/S/D)
BUOY 41004       1450   81 83  360/  4/  4 1019.1R   2/ 7   2/130/ 7
BUOY 41008       1450   83 83  260/  2/  2 1019.4R   2/ 9   2/100/ 9
FOLLY BEACH CMAN 1400   83     310/  4/  5 1019.6S
CAPERS NEARSHORE 1408   83 83  260/  4/  8 1019.1R
FRIPP NEARSHORE  1408   82 84  250/  2/  6 1018.9R


STATION/POSITION TIME  TEMP    WIND        PRES    WAVE   SWELL
                       AIR SEA DIR/SP/G            HT/PER HT/PER/DIR
                 (UTC) (F)     (DEG/KT/KT) (MB)    (FT/S) (FT/S/D)
5E ST. MARYS GA  1430      82                N/A     2/ 8
FRYING PAN BUOY  1450   80 83  270/  6/  8 1019.0R   2/ 8   2/120/ 8
BUOY 41025       1450   81 84   20/  4/  4 1018.3R   2/ 6   2/110/ 6
CAPE LOOKOUT NC  1400   81      80/  4/  4 1017.9F
BUOY 41002       1350   81 84  240/  4/  6 1019.7    4/ 8   3/100/ 8
BUOY 41010       1450   80 85  260/ 12/ 14 1020.5R   3/ 8   3/ 90/ 8
ST AUGUSTINE FL  1500   79 81  110/  5/  5 1020.7R


$$




USA.gov is the U.S. government's official web portal to all federal, state and local government web resources and services.